Eastover, SC

7:07 AM EDT on June 29, 2017 (GMT -0400)
McEntire Angs

Weather History for KMMT - January, 2012

Change the Weather History Date:

Wednesday, January 18, 2012

  Actual Average Record
Temperature  
Mean Temperature 50 °F -  
Max Temperature 59 °F 53 °F 80 °F (2017)
Min Temperature 36 °F 33 °F 19 °F (2005)
Degree Days  
Heating Degree Days 16    
Moisture  
Dew Point 52 °F    
Average Humidity 87    
Maximum Humidity 100    
Minimum Humidity 42    
Precipitation  
Precipitation 0.13 in - - ()
Sea Level Pressure  
Sea Level Pressure 29.96 in    
Wind  
Wind Speed 8 mph (SSW)    
Max Wind Speed 14 mph    
Max Gust Speed 18 mph    
Visibility 10 miles    
Events Rain    
Averages and records for this station are not official NWS values.
T = Trace of Precipitation, MM = Missing Value Source: NWS Daily Summary

Daily Weather History Graph

Daily Weather History Graph

Search for Another Location

Airport or City:

Trip Planner

Search our weather history database for the weather conditions in past years. The results will help you decide how hot, cold, wet, or windy it might be!

Date:

Astronomy

Jan. 18, 2012 Rise Set
Actual Time 7:27 AM EST 5:39 PM EST
Civil Twilight 7:00 AM EST 6:06 PM EST
Nautical Twilight 6:30 AM EST 6:37 PM EST
Astronomical Twilight 6:00 AM EST 7:07 PM EST
Moon 2:54 AM EST (1/18) 1:19 PM EST (1/18)
Length of Visible Light 11h 06m
Length of Day
10h 12m
Waning Crescent, 25% of the Moon is Illuminated
Jan 18
Waning Crescent
Jan 23
New
Jan 30
First Quarter
Feb 7
Full
Feb 14
Last Quarter

Hourly Weather History & Observations

Time (EST) Temp. Windchill Dew Point Humidity Pressure Visibility Wind Dir Wind Speed Gust Speed Precip Events Conditions
12:13 AM 57.2 °F - 55.4 °F 94% 30.01 in 10.0 mi SSE 3.5 mph - N/A Rain Light Rain
12:51 AM 57.2 °F - 57.2 °F 100% 29.99 in 10.0 mi South 4.6 mph - N/A   Overcast
12:55 AM 57.2 °F - 56.8 °F 99% 29.99 in 10.0 mi South 4.6 mph - 0.02 in   Overcast
1:19 AM 57.2 °F - 57.2 °F 100% 29.98 in 10.0 mi South 6.9 mph - N/A Rain Light Rain
1:27 AM 57.2 °F - 57.2 °F 100% 29.97 in 10.0 mi South 9.2 mph - N/A   Overcast
1:38 AM 57.2 °F - 57.2 °F 100% 29.96 in 10.0 mi South 8.1 mph - N/A   Overcast
1:39 AM 57.2 °F - 57.2 °F 100% 29.96 in 10.0 mi South 9.2 mph - N/A   Overcast
1:42 AM 57.2 °F - 57.2 °F 100% 29.96 in 10.0 mi South 8.1 mph - N/A Rain Light Rain
1:50 AM 57.2 °F - 57.2 °F 100% 29.96 in 10.0 mi South 9.2 mph - N/A Rain Light Rain
1:51 AM 57.2 °F - 57.2 °F 100% 29.96 in 10.0 mi South 9.2 mph - N/A Rain Light Rain
1:55 AM 57.2 °F - 56.8 °F 99% 29.96 in 10.0 mi South 9.2 mph - 0.01 in Rain Light Rain
2:15 AM 57.2 °F - 57.2 °F 100% 29.96 in 9.0 mi South 8.1 mph - N/A Rain Light Rain
2:40 AM 59.0 °F - 59.0 °F 100% 29.94 in 10.0 mi South 13.8 mph - N/A   Overcast
2:42 AM 59.0 °F - 59.0 °F 100% 29.94 in 10.0 mi South 11.5 mph - N/A   Overcast
2:46 AM 59.0 °F - 59.0 °F 100% 29.94 in 10.0 mi SSW 10.4 mph - N/A Rain Light Rain
2:54 AM 59.0 °F - 59.0 °F 100% 29.92 in 10.0 mi South 11.5 mph - N/A Rain Light Rain
2:55 AM 58.5 °F - 58.1 °F 99% 29.91 in 10.0 mi South 11.5 mph - 0.08 in Rain Light Rain
2:58 AM 59.0 °F - 57.2 °F 94% 29.92 in 10.0 mi South 11.5 mph - N/A   Overcast
2:59 AM 59.0 °F - 57.2 °F 94% 29.93 in 10.0 mi South 11.5 mph - N/A Rain Light Rain
3:02 AM 59.0 °F - 57.2 °F 94% 29.93 in 10.0 mi SSW 10.4 mph - N/A   Overcast
3:03 AM 59.0 °F - 57.2 °F 94% 29.93 in 10.0 mi SSW 10.4 mph - N/A Rain Light Rain
3:14 AM 59.0 °F - 57.2 °F 94% 29.93 in 10.0 mi SSW 9.2 mph - N/A Rain Light Rain
3:31 AM 59.0 °F - 57.2 °F 94% 29.92 in 10.0 mi SSW 8.1 mph - N/A   Overcast
3:32 AM 59.0 °F - 57.2 °F 94% 29.92 in 10.0 mi SSW 8.1 mph - N/A   Overcast
3:39 AM 59.0 °F - 57.2 °F 94% 29.91 in 10.0 mi SSW 11.5 mph - N/A Rain Light Rain
3:45 AM 59.0 °F - 57.2 °F 94% 29.91 in 10.0 mi SSW 10.4 mph - N/A Rain Light Rain
3:50 AM 59.0 °F - 57.2 °F 94% 29.91 in 10.0 mi SSW 9.2 mph - N/A   Overcast
3:55 AM 58.5 °F - 57.4 °F 96% 29.91 in 10.0 mi SSW 9.2 mph - 0.01 in   Overcast
4:03 AM 59.0 °F - 57.2 °F 94% 29.91 in 10.0 mi SSW 8.1 mph - N/A   Overcast
4:05 AM 59.0 °F - 57.2 °F 94% 29.91 in 10.0 mi SSW 8.1 mph - N/A   Overcast
4:06 AM 59.0 °F - 57.2 °F 94% 29.91 in 10.0 mi South 6.9 mph - N/A   Overcast
4:12 AM 59.0 °F - 57.2 °F 94% 29.91 in 10.0 mi SSW 9.2 mph - N/A   Overcast
4:13 AM 59.0 °F - 57.2 °F 94% 29.91 in 10.0 mi SSW 9.2 mph - N/A   Overcast
4:19 AM 59.0 °F - 57.2 °F 94% 29.91 in 10.0 mi SSW 9.2 mph - N/A   Overcast
4:30 AM 59.0 °F - 57.2 °F 94% 29.90 in 10.0 mi SSW 12.7 mph - N/A   Overcast
4:55 AM 58.6 °F - 57.4 °F 96% 29.91 in 10.0 mi SSW 11.5 mph - N/A   Overcast
5:15 AM 59.0 °F - 57.2 °F 94% 29.91 in 10.0 mi SW 11.5 mph - N/A   Overcast
5:23 AM 59.0 °F - 57.2 °F 94% 29.91 in 10.0 mi SW 9.2 mph 18.4 mph N/A   Overcast
5:24 AM 59.0 °F - 57.2 °F 94% 29.91 in 10.0 mi SW 10.4 mph 18.4 mph N/A Rain Light Rain
5:41 AM 59.0 °F - 57.2 °F 94% 29.91 in 10.0 mi SW 11.5 mph - N/A   Overcast
5:53 AM 59.0 °F - 59.0 °F 100% 29.92 in 9.0 mi SW 10.4 mph - N/A   Overcast
5:55 AM 58.6 °F - 58.3 °F 99% 29.92 in 9.0 mi SW 11.5 mph - 0.00 in   Overcast
6:04 AM 59.0 °F - 59.0 °F 100% 29.93 in 8.0 mi WSW 8.1 mph - N/A Rain Light Rain
6:20 AM 59.0 °F - 55.4 °F 88% 29.94 in 10.0 mi West 10.4 mph - N/A   Light Drizzle
6:31 AM 59.0 °F - 55.4 °F 88% 29.94 in 10.0 mi West 6.9 mph - N/A   Overcast
6:40 AM 59.0 °F - 57.2 °F 94% 29.95 in 10.0 mi West 5.8 mph - N/A Rain Light Rain
6:51 AM 57.2 °F - 57.2 °F 100% 29.95 in 10.0 mi West 4.6 mph - N/A Rain Light Rain
6:55 AM 57.9 °F - 56.8 °F 96% 29.96 in 10.0 mi WNW 5.8 mph - 0.01 in Rain Light Rain
7:22 AM 57.2 °F - 53.6 °F 88% 29.98 in 10.0 mi North 6.9 mph - N/A   Mostly Cloudy
7:55 AM 54.7 °F - 52.5 °F 92% 30.00 in 10.0 mi NNW 6.9 mph - 0.00 in   Mostly Cloudy
8:22 AM 55.4 °F - 51.8 °F 88% 30.02 in 10.0 mi NNW 8.1 mph - N/A   Mostly Cloudy
8:55 AM 55.6 °F - 51.6 °F 87% 30.03 in 10.0 mi NNW 9.2 mph - N/A   Mostly Cloudy
9:55 AM 54.1 °F - 43.9 °F 68% 30.05 in 10.0 mi NNW 11.5 mph - N/A   Mostly Cloudy
10:55 AM 55.6 °F - 41.4 °F 59% 30.04 in 10.0 mi North 6.9 mph - N/A   Mostly Cloudy
11:55 AM 55.9 °F - 40.8 °F 57% 30.04 in 10.0 mi North 11.5 mph 17.3 mph N/A   Mostly Cloudy
12:55 PM 57.9 °F - 38.1 °F 48% 30.01 in 10.0 mi North 8.1 mph - N/A   Mostly Cloudy
1:55 PM 58.1 °F - 38.1 °F 47% 30.00 in 10.0 mi Calm Calm - N/A   Mostly Cloudy
2:55 PM 58.6 °F - 36.9 °F 44% 29.99 in 10.0 mi NE 5.8 mph - N/A   Scattered Clouds
3:55 PM 58.3 °F - 35.1 °F 42% 30.00 in 10.0 mi Variable 6.9 mph - N/A   Scattered Clouds
4:55 PM 56.5 °F - 34.9 °F 44% 30.01 in 10.0 mi North 6.9 mph - N/A   Partly Cloudy
5:55 PM 51.3 °F - 35.1 °F 54% 30.03 in 10.0 mi Variable 3.5 mph - N/A   Partly Cloudy
6:55 PM 44.1 °F - 33.1 °F 65% 30.07 in 10.0 mi Calm Calm - N/A   Partly Cloudy
7:55 PM 46.2 °F 44.1 °F 33.4 °F 61% 30.06 in 10.0 mi NE 4.6 mph - N/A   Scattered Clouds
8:55 PM 43.9 °F 41.3 °F 30.9 °F 60% 30.06 in 10.0 mi NE 4.6 mph - N/A   Mostly Cloudy
9:55 PM 42.8 °F 40.1 °F 29.1 °F 58% 30.06 in 10.0 mi NE 4.6 mph - N/A   Scattered Clouds
10:55 PM 40.8 °F 37.8 °F 28.4 °F 61% 30.08 in 10.0 mi NNE 4.6 mph - N/A   Mostly Cloudy
11:55 PM 36.5 °F 33.9 °F 28.4 °F 72% 30.09 in 10.0 mi North 3.5 mph - N/A   Mostly Cloudy